Location: Township of South Roscoe
(37.9570°N, 100.1180°W)
Time: 19:00:55
(UTC+00:00)

Cosmos 2360 Rocket - Pass Details

Date: 17 October 2021
Orbit: 832 x 846 km, 71.0° (Epoch: 03 December)

Event Time Altitude Azimuth Distance (km) Brightness Sun altitude
Rises 11:59:18 0° 344° (NNW) 3,412 5.2 -11.0°
Reaches altitude 10° 12:01:55 10° 352° (N) 2,474 4.5 -10.5°
Maximum altitude 12:07:15 40° 62° (ENE) 1,220 3.6 -9.4°
Drops below altitude 10° 12:12:33 10° 131° (SE) 2,461 5.5 -8.4°
Sets 12:15:08 0° 139° (SE) 3,392 6.1 -7.9°
